Precipitable_Water
0.27 0.20 0.19 0.18 0.20 0.24 0.27 0.29 0.28 0.29 0.33 0.38 0.37 0.35 0.32 0.32 0.34 0.37 0.39 0.43 0.55 0.57 0.59 0.63 0.64 0.67 0.68 0.75 0.83 0.88 0.96 0.95 0.94 0.96 1.04 1.01 0.95 0.92 0.93 0.88 0.84 0.83 0.79 0.85 0.92 1.01 1.07 1.08 1.10 1.15 1.21 1.23 1.26 1.28 1.30 1.30 1.30 1.29 1.27 1.29 1.25 1.32 1.38 1.36 1.34 1.36 1.34 1.28 1.31 1.34 1.31 1.28 1.36 1.40 1.45 1.45 1.46 1.48 1.56 1.62 1.65 1.66 1.69 1.72 1.75 1.78
0.24 0.18 0.17 0.20 0.22 0.24 0.26 0.29 0.29 0.28 0.30 0.33 0.34 0.33 0.32 0.32 0.30 0.35 0.38 0.42 0.49 0.54 0.58 0.63 0.64 0.67 0.68 0.72 0.79 0.87 0.89 0.88 0.90 0.91 0.94 1.00 0.94 0.91 0.93 0.92 0.87 0.82 0.86 0.90 0.91 0.96 1.03 1.07 1.09 1.14 1.18 1.20 1.17 1.20 1.23 1.21 1.23 1.26 1.29 1.26 1.29 1.36 1.35 1.34 1.33 1.34 1.34 1.32 1.27 1.25 1.27 1.30 1.35 1.37 1.37 1.37 1.43 1.44 1.49 1.56 1.61 1.65 1.67 1.71 1.75 1.77
0.18 0.15 0.16 0.20 0.23 0.24 0.26 0.28 0.28 0.26 0.25 0.30 0.33 0.33 0.32 0.31 0.36 0.38 0.37 0.40 0.46 0.51 0.55 0.62 0.60 0.64 0.70 0.72 0.77 0.82 0.82 0.86 0.91 0.92 0.93 0.96 0.98 0.94 0.95 0.93 0.92 0.92 0.89 0.87 0.84 0.86 0.90 0.96 1.02 1.05 1.08 1.11 1.10 1.14 1.17 1.22 1.26 1.26 1.25 1.26 1.27 1.30 1.31 1.32 1.34 1.33 1.30 1.35 1.37 1.33 1.34 1.34 1.35 1.44 1.45 1.46 1.48 1.52 1.48 1.53 1.56 1.62 1.69 1.74 1.77 1.80
0.17 0.18 0.18 0.21 0.21 0.21 0.22 0.24 0.26 0.25 0.24 0.25 0.29 0.32 0.29 0.35 0.34 0.32 0.37 0.40 0.43 0.47 0.51 0.59 0.58 0.63 0.72 0.76 0.77 0.82 0.83 0.86 0.92 0.93 0.93 0.95 0.95 0.95 0.96 0.96 0.94 0.91 0.91 0.87 0.81 0.81 0.83 0.89 0.94 0.99 1.01 1.02 1.07 1.11 1.15 1.20 1.19 1.21 1.21 1.22 1.23 1.25 1.28 1.30 1.33 1.33 1.36 1.37 1.39 1.41 1.40 1.41 1.38 1.34 1.43 1.47 1.50 1.52 1.50 1.47 1.56 1.62 1.70 1.74 1.75 1.80
0.17 0.20 0.22 0.21 0.21 0.19 0.18 0.19 0.21 0.21 0.20 0.22 0.25 0.29 0.31 0.34 0.35 0.36 0.36 0.38 0.42 0.55 0.59 0.59 0.58 0.60 0.68 0.70 0.75 0.81 0.87 0.86 0.88 0.91 0.91 0.95 0.97 1.01 1.01 1.01 0.99 0.94 0.92 0.91 0.90 0.85 0.84 0.84 0.87 0.90 0.94 1.01 1.02 1.04 1.05 1.09 1.12 1.13 1.11 1.14 1.18 1.21 1.23 1.27 1.31 1.34 1.37 1.38 1.37 1.39 1.41 1.43 1.39 1.41 1.38 1.36 1.36 1.44 1.47 1.47 1.49 1.53 1.65 1.70 1.72 1.77
0.22 0.24 0.25 0.22 0.20 0.19 0.17 0.16 0.16 0.18 0.16 0.18 0.22 0.26 0.31 0.35 0.36 0.36 0.36 0.37 0.37 0.41 0.57 0.57 0.49 0.51 0.64 0.68 0.70 0.78 0.83 0.82 0.86 0.85 0.85 0.89 0.93 0.97 0.97 0.97 1.01 0.99 0.98 0.93 0.93 0.95 0.89 0.85 0.87 0.92 0.97 0.97 0.99 1.00 1.03 1.07 1.09 1.11 1.14 1.16 1.19 1.22 1.26 1.26 1.29 1.33 1.35 1.32 1.27 1.25 1.20 1.15 1.15 1.12 1.14 1.08 1.11 1.25 1.34 1.39 1.52 1.60 1.63 1.66 1.69 1.74
0.23 0.25 0.23 0.22 0.21 0.20 0.18 0.16 0.16 0.17 0.15 0.15 0.16 0.24 0.30 0.34 0.35 0.36 0.35 0.35 0.32 0.32 0.45 0.60 0.45 0.45 0.61 0.64 0.70 0.75 0.78 0.80 0.85 0.83 0.84 0.87 0.91 0.92 0.93 0.97 0.99 0.98 0.98 0.98 0.99 1.01 0.98 0.95 0.90 0.90 0.92 0.94 0.93 0.95 1.02 1.08 1.10 1.14 1.17 1.18 1.19 1.19 1.22 1.27 1.29 1.32 1.32 1.29 1.27 1.21 1.15 1.14 1.09 1.04 1.09 1.17 1.23 1.25 1.35 1.47 1.49 1.57 1.64 1.65 1.63 1.68
0.24 0.24 0.22 0.22 0.21 0.20 0.18 0.14 0.16 0.17 0.15 0.13 0.16 0.21 0.26 0.31 0.33 0.34 0.36 0.35 0.33 0.37 0.43 0.52 0.50 0.43 0.48 0.60 0.71 0.74 0.74 0.77 0.80 0.81 0.83 0.86 0.89 0.90 0.92 0.95 0.99 0.99 0.98 0.97 0.97 1.01 1.00 0.99 0.97 0.91 0.92 0.95 0.94 0.98 1.03 1.05 1.09 1.10 1.13 1.14 1.16 1.20 1.23 1.26 1.30 1.31 1.30 1.23 1.22 1.20 1.17 1.15 1.10 1.05 1.04 1.14 1.18 1.27 1.35 1.43 1.50 1.58 1.62 1.66 1.65 1.66
0.24 0.21 0.21 0.19 0.19 0.19 0.17 0.18 0.17 0.17 0.15 0.12 0.16 0.19 0.21 0.27 0.30 0.35 0.36 0.35 0.35 0.34 0.30 0.38 0.49 0.44 0.43 0.53 0.69 0.74 0.70 0.73 0.75 0.77 0.81 0.84 0.87 0.89 0.91 0.93 0.99 1.00 0.99 1.00 0.99 1.00 1.02 1.01 1.02 1.02 1.00 1.00 1.04 1.09 1.08 1.05 1.05 1.07 1.12 1.15 1.20 1.23 1.25 1.28 1.31 1.29 1.29 1.26 1.21 1.18 1.15 1.11 1.12 1.12 1.13 1.20 1.28 1.29 1.35 1.38 1.50 1.56 1.61 1.64 1.65 1.66
0.23 0.23 0.23 0.22 0.20 0.16 0.18 0.21 0.20 0.19 0.14 0.14 0.16 0.17 0.20 0.25 0.28 0.31 0.33 0.32 0.34 0.32 0.28 0.31 0.46 0.40 0.41 0.52 0.61 0.72 0.68 0.67 0.71 0.75 0.79 0.83 0.84 0.87 0.90 0.93 0.97 1.00 1.01 1.03 1.03 1.04 1.04 1.03 1.02 1.05 1.05 1.06 1.07 1.11 1.13 1.14 1.15 1.14 1.15 1.18 1.19 1.22 1.27 1.30 1.31 1.30 1.28 1.27 1.25 1.18 1.13 1.07 1.07 1.12 1.16 1.23 1.24 1.27 1.31 1.32 1.41 1.50 1.54 1.57 1.58 1.61
0.24 0.29 0.29 0.27 0.21 0.19 0.18 0.19 0.21 0.20 0.19 0.18 0.15 0.14 0.16 0.21 0.24 0.27 0.29 0.30 0.30 0.27 0.27 0.32 0.35 0.44 0.36 0.49 0.55 0.59 0.62 0.66 0.69 0.74 0.78 0.83 0.87 0.89 0.91 0.93 0.94 0.97 0.98 0.99 1.02 1.05 1.06 1.07 1.08 1.12 1.12 1.14 1.18 1.21 1.24 1.25 1.27 1.27 1.25 1.24 1.20 1.21 1.28 1.31 1.31 1.31 1.27 1.27 1.24 1.17 1.12 1.06 1.04 1.07 1.11 1.15 1.19 1.23 1.26 1.26 1.33 1.40 1.45 1.51 1.51 1.55
0.22 0.26 0.26 0.26 0.28 0.25 0.22 0.19 0.20 0.21 0.20 0.18 0.14 0.13 0.13 0.16 0.22 0.23 0.24 0.28 0.24 0.23 0.28 0.31 0.31 0.37 0.34 0.40 0.55 0.60 0.63 0.64 0.65 0.67 0.72 0.77 0.82 0.87 0.90 0.93 0.95 0.95 0.97 1.00 1.02 1.03 1.05 1.07 1.11 1.15 1.15 1.18 1.22 1.25 1.29 1.31 1.33 1.33 1.32 1.31 1.26 1.27 1.29 1.33 1.34 1.33 1.30 1.28 1.24 1.20 1.16 1.09 1.07 1.07 1.08 1.09 1.11 1.17 1.15 1.20 1.25 1.36 1.41 1.43 1.47 1.48
0.19 0.20 0.25 0.27 0.29 0.27 0.23 0.19 0.18 0.19 0.18 0.17 0.15 0.13 0.10 0.11 0.15 0.15 0.18 0.18 0.19 0.19 0.25 0.30 0.31 0.30 0.28 0.33 0.43 0.54 0.60 0.65 0.70 0.71 0.73 0.75 0.78 0.84 0.88 0.91 0.93 0.95 0.97 1.00 1.02 1.05 1.05 1.04 1.08 1.11 1.14 1.19 1.21 1.23 1.27 1.32 1.35 1.36 1.35 1.33 1.29 1.27 1.31 1.33 1.35 1.32 1.31 1.28 1.23 1.19 1.17 1.13 1.11 1.10 1.09 1.09 1.11 1.18 1.17 1.19 1.24 1.31 1.31 1.36 1.36 1.38
0.16 0.21 0.23 0.24 0.27 0.28 0.25 0.19 0.17 0.15 0.16 0.15 0.13 0.12 0.09 0.08 0.09 0.10 0.13 0.17 0.19 0.22 0.27 0.27 0.33 0.27 0.33 0.37 0.43 0.46 0.53 0.61 0.69 0.75 0.75 0.72 0.74 0.79 0.85 0.91 0.94 0.96 0.96 0.99 1.03 1.06 1.06 1.05 1.07 1.09 1.12 1.14 1.18 1.22 1.28 1.33 1.37 1.37 1.34 1.33 1.30 1.28 1.34 1.34 1.35 1.33 1.32 1.29 1.25 1.23 1.18 1.15 1.13 1.11 1.12 1.11 1.11 1.18 1.22 1.24 1.26 1.28 1.28 1.29 1.30 1.32
0.13 0.14 0.17 0.21 0.20 0.26 0.25 0.22 0.20 0.16 0.16 0.15 0.16 0.13 0.10 0.09 0.08 0.07 0.11 0.13 0.16 0.19 0.23 0.29 0.26 0.26 0.28 0.30 0.42 0.46 0.52 0.59 0.65 0.66 0.67 0.70 0.74 0.79 0.87 0.94 0.97 0.98 0.99 1.02 1.04 1.05 1.05 1.06 1.06 1.07 1.09 1.12 1.17 1.21 1.26 1.32 1.37 1.39 1.35 1.35 1.32 1.32 1.37 1.38 1.35 1.34 1.31 1.31 1.31 1.27 1.22 1.19 1.16 1.13 1.14 1.15 1.17 1.19 1.23 1.28 1.30 1.32 1.33 1.32 1.35 1.35
0.15 0.14 0.17 0.20 0.21 0.24 0.22 0.25 0.25 0.20 0.17 0.17 0.17 0.16 0.12 0.10 0.12 0.10 0.13 0.15 0.18 0.19 0.20 0.22 0.24 0.29 0.26 0.34 0.38 0.43 0.50 0.57 0.59 0.59 0.63 0.68 0.75 0.81 0.87 0.91 0.95 0.98 1.01 1.04 1.05 1.07 1.07 1.08 1.10 1.09 1.09 1.13 1.19 1.23 1.25 1.29 1.35 1.36 1.34 1.34 1.32 1.32 1.36 1.40 1.39 1.35 1.32 1.31 1.33 1.31 1.24 1.19 1.18 1.18 1.19 1.20 1.24 1.25 1.27 1.30 1.31 1.32 1.34 1.36 1.38 1.41
0.17 0.14 0.16 0.21 0.23 0.23 0.24 0.25 0.24 0.24 0.14 0.16 0.16 0.13 0.13 0.15 0.13 0.11 0.13 0.18 0.20 0.19 0.15 0.21 0.21 0.25 0.31 0.33 0.38 0.39 0.41 0.45 0.50 0.53 0.57 0.62 0.70 0.77 0.84 0.90 0.93 0.98 1.01 1.02 1.04 1.07 1.08 1.12 1.14 1.13 1.12 1.16 1.22 1.25 1.23 1.24 1.28 1.29 1.32 1.32 1.32 1.34 1.38 1.40 1.41 1.39 1.36 1.32 1.31 1.31 1.29 1.24 1.20 1.20 1.18 1.17 1.20 1.24 1.29 1.33 1.34 1.34 1.36 1.40 1.40 1.41
0.16 0.15 0.18 0.17 0.19 0.24 0.26 0.26 0.26 0.25 0.23 0.19 0.14 0.15 0.17 0.17 0.15 0.11 0.09 0.12 0.12 0.11 0.14 0.17 0.15 0.18 0.21 0.20 0.33 0.37 0.37 0.41 0.47 0.52 0.55 0.59 0.66 0.72 0.79 0.87 0.92 0.97 1.01 1.05 1.06 1.08 1.10 1.11 1.11 1.12 1.14 1.17 1.20 1.21 1.21 1.23 1.29 1.33 1.34 1.33 1.31 1.32 1.32 1.38 1.42 1.43 1.39 1.32 1.29 1.29 1.30 1.28 1.24 1.21 1.22 1.23 1.24 1.29 1.30 1.32 1.34 1.37 1.36 1.37 1.40 1.42
0.23 0.16 0.18 0.19 0.17 0.22 0.28 0.27 0.25 0.27 0.27 0.21 0.17 0.18 0.15 0.12 0.11 0.12 0.11 0.09 0.09 0.09 0.10 0.13 0.16 0.18 0.19 0.20 0.26 0.28 0.32 0.36 0.40 0.50 0.55 0.58 0.62 0.67 0.73 0.79 0.85 0.92 0.98 1.03 1.06 1.08 1.11 1.11 1.11 1.12 1.14 1.17 1.20 1.23 1.23 1.25 1.32 1.36 1.38 1.39 1.36 1.30 1.32 1.35 1.40 1.43 1.43 1.38 1.31 1.29 1.29 1.29 1.28 1.28 1.27 1.29 1.31 1.32 1.29 1.28 1.31 1.33 1.34 1.38 1.40 1.40
0.25 0.18 0.17 0.21 0.21 0.20 0.25 0.26 0.19 0.21 0.26 0.25 0.22 0.18 0.19 0.15 0.13 0.10 0.10 0.13 0.11 0.09 0.09 0.10 0.13 0.12 0.19 0.21 0.26 0.28 0.30 0.34 0.40 0.46 0.51 0.53 0.57 0.62 0.67 0.73 0.79 0.85 0.92 0.99 1.05 1.09 1.11 1.09 1.10 1.14 1.16 1.18 1.20 1.24 1.26 1.29 1.32 1.32 1.35 1.38 1.38 1.39 1.40 1.40 1.39 1.42 1.40 1.39 1.36 1.33 1.34 1.34 1.32 1.30 1.28 1.29 1.31 1.31 1.28 1.29 1.31 1.33 1.32 1.31 1.37 1.37
0.24 0.25 0.16 0.19 0.22 0.22 0.18 0.23 0.20 0.20 0.20 0.22 0.21 0.18 0.17 0.15 0.16 0.13 0.13 0.11 0.10 0.10 0.10 0.10 0.10 0.11 0.16 0.24 0.25 0.29 0.32 0.34 0.36 0.40 0.45 0.50 0.56 0.62 0.67 0.71 0.75 0.80 0.86 0.94 1.00 1.04 1.06 1.05 1.08 1.13 1.18 1.20 1.22 1.26 1.28 1.28 1.26 1.28 1.35 1.37 1.40 1.36 1.37 1.36 1.39 1.41 1.40 1.41 1.37 1.33 1.30 1.30 1.32 1.30 1.32 1.31 1.33 1.31 1.30 1.32 1.34 1.33 1.32 1.33 1.32 1.35
0.26 0.25 0.19 0.19 0.19 0.19 0.19 0.23 0.25 0.23 0.23 0.22 0.19 0.18 0.17 0.14 0.12 0.10 0.09 0.12 0.12 0.11 0.10 0.10 0.08 0.13 0.19 0.22 0.26 0.28 0.32 0.33 0.38 0.42 0.46 0.49 0.54 0.59 0.65 0.69 0.73 0.76 0.81 0.86 0.91 0.96 1.00 1.01 1.06 1.11 1.15 1.19 1.22 1.24 1.24 1.24 1.25 1.29 1.31 1.34 1.38 1.41 1.37 1.34 1.36 1.37 1.40 1.42 1.39 1.33 1.30 1.30 1.33 1.33 1.31 1.29 1.31 1.30 1.31 1.31 1.32 1.33 1.34 1.28 1.30 1.35
0.31 0.29 0.25 0.19 0.18 0.19 0.21 0.25 0.27 0.28 0.27 0.24 0.24 0.20 0.21 0.18 0.15 0.11 0.09 0.10 0.12 0.11 0.12 0.12 0.10 0.10 0.18 0.22 0.25 0.27 0.30 0.34 0.41 0.46 0.48 0.51 0.55 0.59 0.63 0.67 0.72 0.74 0.76 0.83 0.86 0.89 0.92 0.95 1.00 1.05 1.09 1.12 1.13 1.14 1.15 1.18 1.21 1.22 1.25 1.31 1.35 1.34 1.33 1.35 1.36 1.41 1.42 1.41 1.38 1.36 1.35 1.34 1.33 1.33 1.31 1.28 1.28 1.27 1.28 1.29 1.31 1.34 1.29 1.27 1.30 1.35
0.37 0.29 0.25 0.23 0.23 0.22 0.23 0.26 0.28 0.29 0.29 0.27 0.25 0.25 0.23 0.18 0.16 0.14 0.12 0.13 0.11 0.11 0.10 0.10 0.09 0.09 0.14 0.18 0.19 0.27 0.36 0.41 0.45 0.49 0.49 0.52 0.55 0.60 0.64 0.68 0.72 0.73 0.76 0.80 0.84 0.88 0.92 0.95 0.98 1.00 1.04 1.08 1.12 1.14 1.17 1.18 1.20 1.24 1.28 1.30 1.32 1.30 1.33 1.38 1.40 1.42 1.43 1.41 1.39 1.37 1.34 1.32 1.33 1.33 1.32 1.27 1.25 1.24 1.26 1.29 1.30 1.34 1.31 1.29 1.32 1.32
0.31 0.29 0.27 0.22 0.21 0.19 0.18 0.22 0.24 0.28 0.28 0.26 0.25 0.25 0.25 0.24 0.19 0.17 0.16 0.17 0.11 0.12 0.12 0.11 0.08 0.09 0.14 0.16 0.15 0.22 0.33 0.36 0.40 0.48 0.56 0.57 0.60 0.62 0.66 0.69 0.72 0.74 0.76 0.79 0.81 0.85 0.91 0.97 0.99 1.01 1.03 1.05 1.08 1.11 1.13 1.14 1.17 1.21 1.25 1.29 1.30 1.31 1.38 1.39 1.43 1.42 1.41 1.41 1.39 1.38 1.33 1.30 1.32 1.30 1.29 1.25 1.23 1.22 1.26 1.29 1.31 1.33 1.30 1.31 1.32 1.33
0.33 0.29 0.27 0.21 0.18 0.15 0.12 0.13 0.16 0.19 0.21 0.24 0.25 0.25 0.26 0.25 0.24 0.20 0.14 0.14 0.12 0.12 0.13 0.12 0.10 0.13 0.16 0.16 0.14 0.15 0.24 0.28 0.31 0.37 0.46 0.52 0.59 0.65 0.69 0.72 0.75 0.76 0.77 0.79 0.81 0.85 0.88 0.93 0.97 1.00 1.03 1.06 1.10 1.11 1.11 1.10 1.13 1.17 1.21 1.24 1.31 1.37 1.42 1.42 1.44 1.42 1.41 1.40 1.37 1.36 1.33 1.29 1.28 1.26 1.25 1.24 1.22 1.22 1.25 1.29 1.31 1.30 1.31 1.33 1.30 1.33
0.33 0.31 0.28 0.25 0.22 0.19 0.17 0.17 0.24 0.25 0.23 0.21 0.23 0.25 0.25 0.26 0.27 0.25 0.21 0.15 0.12 0.13 0.12 0.12 0.13 0.15 0.15 0.16 0.16 0.15 0.20 0.27 0.28 0.31 0.38 0.43 0.49 0.63 0.69 0.73 0.76 0.76 0.77 0.78 0.81 0.85 0.89 0.90 0.94 0.98 1.03 1.06 1.09 1.12 1.12 1.11 1.10 1.13 1.17 1.21 1.30 1.37 1.42 1.45 1.45 1.44 1.41 1.40 1.36 1.33 1.31 1.28 1.24 1.23 1.23 1.24 1.23 1.24 1.26 1.28 1.30 1.29 1.27 1.33 1.33 1.33
0.36 0.31 0.27 0.27 0.26 0.25 0.25 0.21 0.22 0.24 0.23 0.23 0.23 0.23 0.25 0.26 0.25 0.24 0.21 0.16 0.17 0.14 0.11 0.12 0.15 0.13 0.16 0.18 0.17 0.19 0.18 0.22 0.30 0.35 0.37 0.41 0.48 0.52 0.69 0.78 0.80 0.80 0.79 0.81 0.82 0.83 0.83 0.87 0.94 0.98 1.02 1.05 1.08 1.10 1.11 1.13 1.15 1.14 1.15 1.17 1.25 1.34 1.39 1.46 1.47 1.45 1.42 1.39 1.35 1.31 1.29 1.29 1.27 1.24 1.23 1.26 1.28 1.27 1.26 1.28 1.28 1.28 1.30 1.34 1.34 1.34
0.39 0.31 0.32 0.28 0.26 0.27 0.28 0.27 0.24 0.23 0.24 0.25 0.25 0.24 0.24 0.25 0.27 0.23 0.22 0.22 0.20 0.14 0.11 0.13 0.14 0.13 0.13 0.16 0.23 0.28 0.25 0.26 0.34 0.39 0.42 0.44 0.47 0.51 0.64 0.71 0.76 0.80 0.81 0.83 0.83 0.83 0.82 0.84 0.89 0.95 0.99 1.04 1.05 1.06 1.09 1.13 1.16 1.19 1.20 1.23 1.28 1.33 1.36 1.43 1.46 1.46 1.44 1.40 1.32 1.29 1.30 1.30 1.30 1.28 1.25 1.25 1.27 1.27 1.27 1.27 1.28 1.30 1.32 1.34 1.35 1.37
0.40 0.35 0.36 0.36 0.27 0.27 0.28 0.29 0.28 0.25 0.23 0.26 0.26 0.26 0.25 0.25 0.25 0.25 0.24 0.25 0.23 0.19 0.17 0.15 0.14 0.13 0.15 0.16 0.17 0.25 0.29 0.29 0.38 0.42 0.43 0.46 0.53 0.56 0.61 0.64 0.66 0.71 0.75 0.78 0.80 0.81 0.81 0.84 0.88 0.91 0.97 1.03 1.04 1.04 1.06 1.10 1.13 1.16 1.16 1.18 1.23 1.26 1.33 1.43 1.44 1.43 1.43 1.38 1.32 1.33 1.35 1.33 1.29 1.26 1.25 1.24 1.23 1.25 1.26 1.27 1.28 1.30 1.31 1.33 1.36 1.38
0.41 0.34 0.41 0.40 0.33 0.27 0.27 0.29 0.29 0.28 0.26 0.24 0.26 0.28 0.26 0.25 0.25 0.25 0.25 0.26 0.26 0.23 0.21 0.18 0.16 0.15 0.17 0.18 0.17 0.19 0.21 0.25 0.25 0.28 0.32 0.38 0.53 0.63 0.61 0.67 0.73 0.76 0.78 0.80 0.78 0.78 0.79 0.83 0.88 0.94 0.97 0.99 0.99 0.99 1.02 1.06 1.12 1.16 1.18 1.19 1.21 1.24 1.31 1.37 1.38 1.41 1.40 1.36 1.37 1.39 1.38 1.34 1.29 1.26 1.22 1.21 1.23 1.25 1.26 1.26 1.29 1.31 1.32 1.34 1.37 1.39
0.44 0.38 0.44 0.42 0.34 0.28 0.28 0.28 0.28 0.29 0.28 0.27 0.26 0.26 0.28 0.26 0.23 0.24 0.23 0.26 0.26 0.25 0.25 0.23 0.18 0.17 0.18 0.20 0.20 0.20 0.20 0.21 0.21 0.24 0.28 0.36 0.41 0.50 0.64 0.68 0.69 0.70 0.73 0.80 0.83 0.83 0.84 0.86 0.90 0.95 0.97 0.95 0.92 0.94 0.98 1.03 1.09 1.14 1.15 1.19 1.19 1.22 1.30 1.33 1.34 1.35 1.36 1.38 1.44 1.44 1.39 1.34 1.30 1.25 1.20 1.22 1.22 1.24 1.26 1.29 1.31 1.32 1.33 1.34 1.36 1.41
0.44 0.41 0.38 0.40 0.34 0.32 0.30 0.29 0.29 0.29 0.28 0.25 0.24 0.25 0.29 0.31 0.29 0.28 0.28 0.29 0.29 0.30 0.27 0.22 0.21 0.23 0.21 0.20 0.19 0.19 0.20 0.23 0.24 0.24 0.28 0.36 0.44 0.46 0.58 0.68 0.68 0.71 0.74 0.79 0.82 0.85 0.87 0.90 0.95 0.97 0.99 0.96 0.93 0.93 0.96 1.00 1.05 1.07 1.10 1.14 1.18 1.25 1.30 1.31 1.30 1.31 1.33 1.39 1.43 1.43 1.41 1.38 1.31 1.24 1.20 1.20 1.22 1.27 1.30 1.30 1.30 1.32 1.33 1.33 1.38 1.44
0.46 0.44 0.41 0.46 0.37 0.34 0.36 0.32 0.31 0.28 0.24 0.21 0.25 0.30 0.29 0.30 0.31 0.29 0.29 0.30 0.31 0.32 0.29 0.29 0.27 0.27 0.25 0.22 0.19 0.19 0.21 0.24 0.28 0.30 0.32 0.36 0.41 0.47 0.52 0.55 0.63 0.71 0.69 0.74 0.84 0.94 0.99 1.02 1.00 0.99 0.97 0.95 0.92 0.90 0.92 1.00 1.02 1.04 1.09 1.12 1.19 1.25 1.28 1.29 1.30 1.31 1.33 1.38 1.41 1.43 1.42 1.40 1.34 1.25 1.20 1.21 1.25 1.30 1.30 1.30 1.29 1.32 1.36 1.38 1.42 1.43
0.45 0.46 0.42 0.45 0.40 0.34 0.38 0.34 0.29 0.24 0.23 0.28 0.36 0.34 0.33 0.32 0.36 0.34 0.33 0.35 0.35 0.34 0.32 0.30 0.29 0.28 0.28 0.25 0.23 0.22 0.23 0.34 0.38 0.37 0.39 0.39 0.45 0.47 0.41 0.44 0.49 0.55 0.66 0.71 0.71 0.76 0.84 0.93 1.01 1.00 0.97 0.94 0.92 0.94 1.01 1.06 1.07 1.09 1.13 1.18 1.19 1.21 1.22 1.26 1.28 1.30 1.34 1.37 1.40 1.44 1.44 1.41 1.37 1.28 1.23 1.24 1.27 1.30 1.30 1.30 1.32 1.35 1.38 1.40 1.40 1.42
0.44 0.44 0.43 0.42 0.43 0.40 0.37 0.35 0.25 0.24 0.31 0.35 0.37 0.37 0.38 0.37 0.37 0.37 0.41 0.44 0.44 0.40 0.35 0.34 0.34 0.33 0.32 0.33 0.31 0.30 0.30 0.37 0.42 0.49 0.52 0.54 0.49 0.45 0.50 0.51 0.47 0.47 0.51 0.59 0.64 0.67 0.77 0.84 0.87 0.92 0.96 1.00 1.01 1.00 1.04 1.05 1.10 1.14 1.19 1.26 1.23 1.19 1.20 1.21 1.25 1.28 1.34 1.36 1.39 1.42 1.44 1.41 1.37 1.33 1.29 1.26 1.27 1.28 1.29 1.32 1.34 1.34 1.40 1.42 1.45 1.48
0.45 0.45 0.45 0.40 0.44 0.36 0.35 0.35 0.31 0.36 0.34 0.35 0.37 0.39 0.37 0.35 0.36 0.36 0.37 0.44 0.53 0.50 0.44 0.40 0.39 0.37 0.39 0.39 0.39 0.37 0.38 0.34 0.36 0.49 0.63 0.61 0.59 0.54 0.49 0.52 0.65 0.73 0.72 0.75 0.79 0.80 0.83 0.85 0.87 0.92 0.96 1.00 1.03 1.04 1.06 1.07 1.12 1.14 1.17 1.22 1.24 1.23 1.19 1.19 1.21 1.25 1.30 1.33 1.38 1.41 1.44 1.44 1.39 1.36 1.33 1.29 1.26 1.25 1.29 1.32 1.36 1.40 1.46 1.44 1.46 1.47
0.54 0.43 0.45 0.40 0.39 0.43 0.36 0.33 0.35 0.32 0.28 0.34 0.41 0.47 0.48 0.49 0.45 0.46 0.44 0.50 0.62 0.62 0.60 0.51 0.45 0.47 0.45 0.45 0.43 0.42 0.38 0.31 0.32 0.44 0.66 0.74 0.73 0.67 0.62 0.61 0.61 0.57 0.55 0.60 0.71 0.84 0.98 1.00 1.02 1.06 1.06 1.04 1.05 1.06 1.06 1.07 1.12 1.15 1.14 1.14 1.19 1.21 1.20 1.15 1.13 1.17 1.25 1.30 1.36 1.41 1.45 1.47 1.45 1.40 1.37 1.33 1.26 1.25 1.30 1.37 1.42 1.44 1.48 1.44 1.45 1.46
0.54 0.49 0.45 0.43 0.43 0.43 0.38 0.32 0.31 0.29 0.30 0.39 0.44 0.48 0.53 0.59 0.57 0.58 0.46 0.47 0.67 0.71 0.70 0.64 0.56 0.55 0.52 0.47 0.46 0.43 0.37 0.33 0.37 0.47 0.72 0.80 0.73 0.72 0.70 0.72 0.74 0.75 0.75 0.65 0.55 0.57 0.64 0.70 0.81 0.94 1.05 1.13 1.13 1.16 1.20 1.20 1.16 1.13 1.09 1.07 1.13 1.19 1.19 1.15 1.10 1.11 1.15 1.23 1.33 1.41 1.47 1.51 1.51 1.48 1.43 1.35 1.31 1.32 1.33 1.36 1.40 1.48 1.54 1.53 1.53 1.53
0.49 0.48 0.49 0.45 0.42 0.44 0.40 0.32 0.30 0.33 0.33 0.39 0.47 0.54 0.55 0.57 0.56 0.49 0.37 0.45 0.67 0.81 0.79 0.73 0.65 0.62 0.60 0.58 0.53 0.46 0.40 0.36 0.44 0.59 0.82 0.84 0.81 0.81 0.75 0.70 0.72 0.78 0.84 0.86 0.83 0.74 0.69 0.76 0.83 0.83 0.85 0.88 0.96 1.11 1.23 1.29 1.25 1.18 1.14 1.11 1.11 1.15 1.17 1.16 1.12 1.11 1.13 1.18 1.30 1.43 1.51 1.55 1.54 1.53 1.48 1.41 1.39 1.41 1.41 1.46 1.49 1.53 1.54 1.56 1.57 1.58
0.45 0.48 0.46 0.43 0.46 0.47 0.43 0.35 0.35 0.38 0.57 0.66 0.64 0.70 0.63 0.60 0.51 0.37 0.32 0.56 0.79 0.85 0.85 0.80 0.77 0.76 0.73 0.65 0.59 0.50 0.67 0.73 0.79 0.87 0.91 0.87 0.80 0.81 0.84 0.84 0.84 0.86 0.84 0.86 0.87 0.86 0.80 0.78 0.77 0.80 0.88 0.93 0.94 1.04 1.23 1.31 1.24 1.15 1.15 1.20 1.18 1.13 1.14 1.15 1.15 1.16 1.17 1.23 1.29 1.34 1.42 1.52 1.56 1.55 1.55 1.52 1.49 1.51 1.54 1.56 1.53 1.55 1.57 1.57 1.61 1.64
0.50 0.50 0.49 0.48 0.47 0.47 0.46 0.40 0.33 0.48 0.64 0.70 0.73 0.68 0.70 0.52 0.35 0.34 0.65 0.88 0.91 0.90 0.93 0.90 0.84 0.86 0.81 0.76 0.75 0.75 0.83 0.88 0.89 0.86 0.80 0.77 0.78 0.83 0.86 0.86 0.87 0.90 0.95 0.98 0.93 0.85 0.84 0.85 0.86 0.82 0.85 0.94 1.06 1.21 1.32 1.27 1.09 1.00 1.02 1.09 1.17 1.20 1.20 1.21 1.23 1.27 1.29 1.30 1.30 1.33 1.37 1.43 1.52 1.59 1.61 1.63 1.63 1.60 1.58 1.63 1.65 1.62 1.61 1.62 1.63 1.64
0.55 0.47 0.45 0.46 0.56 0.58 0.54 0.46 0.36 0.32 0.63 0.75 0.72 0.64 0.69 0.49 0.57 0.67 0.82 0.92 0.96 0.95 0.91 0.90 0.89 0.90 0.87 0.80 0.83 0.80 0.79 0.78 0.78 0.79 0.79 0.78 0.76 0.76 0.80 0.86 0.86 0.84 0.84 0.85 0.87 0.94 0.87 0.80 0.79 0.80 0.83 0.95 1.01 1.10 1.17 1.27 1.30 1.22 1.09 1.02 1.05 1.15 1.22 1.26 1.32 1.33 1.35 1.35 1.35 1.35 1.36 1.40 1.48 1.57 1.64 1.66 1.67 1.63 1.61 1.67 1.70 1.71 1.69 1.66 1.66 1.66
0.67 0.50 0.48 0.51 0.62 0.52 0.52 0.47 0.48 0.69 0.82 0.90 0.79 0.59 0.76 0.74 0.92 0.92 0.84 0.80 0.92 0.94 0.90 0.88 0.90 0.91 0.89 0.83 0.79 0.77 0.78 0.76 0.77 0.77 0.77 0.78 0.79 0.79 0.81 0.87 0.92 0.95 0.97 0.98 0.96 0.96 0.96 0.88 0.86 0.84 0.88 0.92 0.94 1.01 1.12 1.15 1.09 1.13 1.28 1.38 1.37 1.26 1.24 1.29 1.32 1.33 1.34 1.36 1.39 1.41 1.44 1.46 1.50 1.60 1.67 1.69 1.72 1.70 1.67 1.69 1.72 1.72 1.70 1.69 1.68 1.66
0.68 0.57 0.61 0.48 0.64 0.65 0.62 0.68 0.81 0.92 0.97 0.97 0.94 0.86 0.94 1.01 1.03 1.03 0.98 0.94 0.90 0.92 1.00 0.91 0.91 0.95 0.94 0.89 0.85 0.83 0.79 0.83 0.83 0.84 0.79 0.79 0.81 0.81 0.80 0.82 0.86 0.91 0.95 0.96 0.98 1.02 1.01 0.99 0.96 0.97 0.97 1.02 1.01 1.02 1.05 1.03 0.99 1.08 1.09 1.17 1.36 1.52 1.57 1.46 1.37 1.38 1.37 1.39 1.45 1.50 1.54 1.55 1.56 1.60 1.67 1.73 1.74 1.71 1.71 1.73 1.74 1.69 1.72 1.71 1.69 1.67
0.83 0.77 0.79 0.68 0.67 0.82 0.87 0.92 0.97 1.01 0.99 0.97 1.01 0.98 0.94 1.08 1.12 1.07 1.00 0.95 1.01 1.03 1.01 0.92 0.93 0.95 0.96 0.96 0.86 0.86 0.85 0.87 0.86 0.86 0.85 0.85 0.83 0.86 0.91 0.91 0.93 0.97 1.03 1.08 1.12 1.13 1.13 1.14 1.10 1.07 1.08 1.17 1.23 1.24 1.20 1.12 1.08 0.97 0.95 1.14 1.33 1.45 1.57 1.69 1.70 1.55 1.48 1.50 1.54 1.61 1.62 1.59 1.59 1.62 1.69 1.74 1.80 1.79 1.79 1.76 1.75 1.73 1.72 1.70 1.66 1.61
0.79 0.79 0.70 0.60 0.70 0.66 0.59 0.85 0.92 0.95 0.99 1.00 0.96 1.00 1.03 1.09 1.15 1.14 1.08 1.05 1.04 1.03 1.03 1.04 1.03 1.00 0.97 0.93 0.87 0.83 0.84 0.87 0.86 0.87 0.89 0.89 0.87 0.86 0.86 0.87 0.92 0.96 0.97 1.00 1.09 1.16 1.16 1.16 1.12 1.08 1.04 1.01 1.13 1.18 1.25 1.30 1.24 1.18 1.21 1.29 1.42 1.55 1.70 1.86 1.97 1.93 1.78 1.65 1.68 1.69 1.70 1.63 1.59 1.60 1.67 1.75 1.81 1.87 1.89 1.88 1.84 1.79 1.72 1.67 1.58 1.50
0.60 0.82 0.65 0.66 0.67 0.65 0.68 0.82 0.97 1.00 0.99 1.01 0.97 0.92 0.93 1.04 1.13 1.14 1.14 1.12 1.09 1.07 1.07 1.06 1.04 0.99 0.98 0.91 0.91 0.86 0.85 0.89 0.86 0.86 0.87 0.88 0.89 0.89 0.87 0.88 0.90 0.95 1.01 1.06 1.10 1.12 1.11 1.12 1.12 1.11 1.08 1.05 1.10 1.15 1.21 1.24 1.26 1.23 1.19 1.18 1.20 1.31 1.42 1.50 1.82 1.93 2.01 2.04 1.89 1.77 1.76 1.70 1.66 1.60 1.63 1.72 1.78 1.82 1.87 1.92 1.90 1.80 1.69 1.57 1.46 1.36
0.69 0.76 0.58 0.68 0.62 0.72 0.79 0.90 0.96 0.96 0.97 0.96 0.96 0.97 1.02 1.06 1.12 1.16 1.10 1.07 1.08 1.04 1.03 1.03 1.02 0.99 0.97 0.95 0.97 0.92 0.87 0.89 0.91 0.90 0.89 0.91 0.91 0.91 0.91 0.91 0.95 0.99 1.03 1.04 1.09 1.13 1.11 1.13 1.12 1.12 1.07 1.05 1.12 1.17 1.22 1.28 1.32 1.33 1.32 1.33 1.35 1.36 1.35 1.41 1.61 1.91 2.05 2.19 2.20 2.08 1.95 1.85 1.74 1.66 1.69 1.74 1.86 1.94 2.00 1.95 1.89 1.77 1.58 1.51 1.44 1.36
0.69 0.59 0.71 0.68 0.58 0.59 0.63 0.74 0.90 0.75 0.75 0.90 0.95 0.98 1.01 1.08 1.11 1.15 1.10 1.02 1.01 0.99 0.99 0.96 0.98 1.01 1.00 1.00 0.99 0.96 0.90 0.91 0.94 0.95 0.92 0.93 0.93 0.95 0.97 0.98 0.99 1.03 1.08 1.15 1.18 1.18 1.19 1.20 1.18 1.15 1.12 1.14 1.21 1.23 1.26 1.31 1.37 1.44 1.47 1.53 1.55 1.53 1.49 1.43 1.43 1.64 1.85 2.12 2.23 2.11 2.07 1.97 1.84 1.81 1.83 1.86 1.89 1.91 1.95 2.02 1.84 1.57 1.39 1.37 1.44 1.45
0.63 0.69 0.66 0.59 0.58 0.59 0.81 0.87 0.94 0.94 0.91 0.93 0.98 1.02 1.02 1.03 1.04 1.06 1.04 1.00 0.99 1.01 1.02 0.98 0.95 0.97 0.98 0.99 1.03 0.99 0.97 0.96 0.96 0.98 0.96 0.96 0.98 1.02 1.05 1.05 1.03 1.05 1.08 1.14 1.13 1.15 1.19 1.23 1.23 1.22 1.19 1.22 1.27 1.28 1.28 1.26 1.26 1.30 1.40 1.49 1.55 1.52 1.46 1.49 1.43 1.41 1.55 1.71 1.85 1.88 1.84 1.89 1.97 1.90 1.84 1.85 1.93 1.89 1.87 1.60 1.45 1.47 1.48 1.46 1.44 1.45
Wind_Speed
18 19 21 21 20 20 20 20 20 20 20 19 17 16 16 16 15 14 12 10 11 15 17 16 14 14 15 16 15 16 15 14 13 13 12 13 14 14 14 15 16 18 18 17 19 20 21 21 21 21 22 22 21 21 21 21 20 20 19 18 18 18 18 17 16 15 14 14 13 12 12 11 11 11 10 9 9 9 9 8 8 7 7 6 6 5
17 20 22 21 21 20 20 20 20 21 22 21 19 18 17 17 17 16 13 11 13 16 17 16 15 15 16 16 16 16 15 14 14 14 13 14 14 15 15 16 17 18 17 18 19 20 21 22 22 22 22 22 22 22 22 22 21 20 20 19 19 18 18 17 16 16 15 15 14 13 13 12 12 11 11 10 9 9 9 9 8 8 7 7 6 6
17 20 21 21 20 21 20 20 20 21 22 22 21 19 18 18 16 16 15 13 14 17 18 18 16 16 17 17 16 17 16 15 16 16 15 15 15 15 16 16 17 17 17 18 19 20 21 22 23 23 23 23 23 23 23 22 22 21 20 20 19 19 19 18 17 17 16 16 15 14 13 13 12 12 11 10 10 9 9 9 9 8 8 7 7 6
17 17 19 20 20 22 22 22 21 21 22 22 22 21 20 19 16 15 15 13 13 16 19 20 18 16 16 16 17 18 17 16 17 17 16 17 17 17 17 17 17 18 18 18 20 20 21 22 22 23 23 23 23 23 23 23 22 22 21 21 20 20 19 19 18 17 17 17 16 15 14 13 12 12 11 11 11 10 9 9 9 9 8 8 7 7
17 15 17 19 21 22 23 23 23 22 22 23 24 23 22 21 19 17 14 12 13 14 17 19 16 15 17 17 18 18 17 17 17 17 16 17 18 18 18 18 19 19 19 19 20 20 21 22 23 23 23 23 23 23 23 23 23 22 21 21 20 20 20 19 19 18 17 17 17 16 15 14 13 12 12 12 11 11 10 10 9 9 9 9 8 7
18 16 16 18 20 22 23 23 24 23 22 23 24 25 25 24 21 19 17 13 12 13 16 18 15 15 19 20 19 18 17 17 17 16 16 17 18 18 18 19 19 20 20 20 20 20 21 22 23 23 24 23 24 24 24 24 23 22 22 21 21 20 20 20 20 19 18 17 17 17 16 15 14 13 13 12 12 11 11 10 10 10 10 9 8 8
17 17 18 18 19 21 23 23 24 23 22 23 23 24 26 26 23 22 20 16 13 13 15 19 18 15 18 21 21 19 19 18 18 17 16 17 18 18 19 19 19 20 20 21 21 21 21 21 22 23 24 24 24 24 24 24 24 23 22 22 22 21 21 21 20 20 19 18 18 18 17 16 16 15 14 14 13 12 12 11 11 10 10 9 9 8
15 18 19 20 20 21 22 22 23 23 23 23 21 22 24 26 25 25 23 20 17 15 15 19 19 17 19 22 21 21 20 19 18 18 16 17 19 20 20 20 20 21 21 21 21 22 21 21 22 23 24 24 24 23 24 24 24 24 23 23 23 22 22 21 21 21 20 19 19 18 18 17 17 16 15 15 14 13 12 12 11 11 10 10 9 8
14 17 19 20 21 21 21 21 21 22 23 22 20 22 24 24 25 25 23 22 20 18 18 19 20 18 18 21 22 22 22 21 20 20 18 17 19 21 21 21 21 22 22 22 22 23 23 22 22 23 24 24 24 24 24 24 24 24 24 24 23 23 22 22 22 22 21 21 20 19 18 18 17 17 16 15 15 14 13 12 12 11 11 10 9 9
14 16 18 19 20 20 20 21 21 22 22 20 19 21 23 23 24 23 23 23 21 21 21 20 20 18 17 19 22 22 23 22 21 20 19 18 20 21 21 22 22 22 23 23 24 24 23 23 23 24 24 24 24 24 24 24 24 25 25 24 24 23 23 23 23 23 22 22 21 20 19 19 18 17 16 16 15 15 14 13 13 12 12 11 10 10
17 17 17 18 19 19 19 20 21 22 21 18 19 21 22 22 23 22 22 22 21 22 23 22 22 21 18 19 23 24 23 23 21 20 19 18 20 21 22 22 23 23 23 24 24 24 24 25 25 24 24 24 24 24 24 24 24 25 25 25 25 24 24 23 24 24 23 23 22 21 20 20 19 18 17 16 16 16 14 14 13 13 12 11 11 10
20 19 18 17 18 18 18 20 21 22 22 20 19 20 21 21 21 22 22 22 22 22 23 23 23 24 22 20 23 24 24 23 22 20 20 19 20 21 22 22 23 24 24 25 25 25 25 25 25 24 24 25 24 24 24 24 24 25 25 25 26 25 25 24 24 24 24 23 23 22 22 21 20 19 18 18 17 16 15 15 14 13 13 12 12 11
21 22 20 18 19 19 18 18 19 20 22 22 21 21 21 20 20 22 22 21 22 22 23 23 22 24 26 23 23 25 24 23 23 21 20 20 20 21 22 23 23 24 25 26 25 25 25 25 25 25 25 25 24 24 24 25 25 25 25 26 26 26 26 25 25 25 25 24 24 23 23 22 21 20 19 19 18 17 16 16 15 14 14 13 12 12
19 21 22 21 20 20 20 19 19 20 21 23 23 23 22 19 19 22 21 20 21 22 22 22 22 22 24 24 23 24 24 24 24 23 22 21 21 22 23 23 23 24 25 26 26 26 25 26 26 25 26 25 25 25 25 25 25 25 25 26 26 26 26 26 26 26 25 25 24 24 24 23 22 21 20 19 19 18 17 16 16 15 15 14 13 13
20 20 21 23 21 20 22 21 20 19 20 23 22 22 24 23 21 20 19 19 20 20 20 21 22 21 21 22 22 23 23 24 25 25 24 23 22 22 22 22 23 23 25 26 26 27 26 27 27 26 26 26 26 26 25 25 25 26 26 26 27 26 26 27 26 26 26 25 25 25 24 24 23 22 21 20 19 19 18 17 17 16 15 15 14 14
23 22 21 22 22 22 23 21 20 19 20 22 21 22 25 25 23 19 18 19 18 18 20 21 22 22 22 22 21 21 23 24 25 26 24 23 22 22 21 22 22 22 25 26 26 27 27 27 27 27 27 26 26 26 25 25 25 26 25 26 26 26 26 27 26 26 26 26 25 25 25 25 24 23 22 21 20 20 19 18 18 17 16 16 15 14
22 23 21 21 23 24 24 22 21 21 20 20 23 24 23 22 23 22 20 19 19 19 21 22 22 22 22 22 21 21 23 23 23 24 24 24 24 23 23 23 22 22 24 26 26 27 27 27 27 27 27 27 26 26 26 26 26 26 25 25 25 25 25 26 26 26 26 26 26 26 26 25 25 24 23 22 21 21 20 19 19 18 17 16 16 15
21 21 21 23 24 25 26 24 24 24 22 20 23 25 20 18 22 23 20 19 20 21 21 23 24 23 22 22 21 21 23 23 22 22 23 23 23 24 24 24 23 22 23 25 26 26 27 27 27 27 27 27 27 27 27 27 26 26 25 25 25 25 25 25 26 26 26 26 26 26 26 26 25 25 24 23 22 21 21 20 20 19 18 17 17 16
22 22 21 23 25 24 24 25 26 26 25 23 22 22 20 19 21 22 21 20 21 21 20 21 24 24 24 23 21 21 23 23 22 22 23 23 23 23 24 25 24 23 23 24 25 25 26 26 27 27 28 28 28 28 27 27 26 25 25 25 25 25 25 25 25 25 25 26 26 26 26 26 25 25 24 24 23 22 22 22 21 20 19 18 18 17
23 23 23 22 23 23 23 26 28 28 26 24 22 22 22 22 22 22 22 20 19 19 19 20 21 23 25 24 22 22 22 21 22 23 23 23 23 24 24 24 23 23 23 24 25 25 26 26 26 27 27 28 28 27 27 27 26 26 26 25 25 25 25 25 25 25 25 25 25 25 26 26 26 25 25 24 24 23 23 22 22 21 20 19 19 18
25 25 25 23 22 24 26 27 29 29 27 26 26 26 24 22 21 22 23 22 19 18 17 18 19 22 24 23 23 24 22 20 21 23 24 24 24 26 25 24 23 22 23 24 25 25 26 26 26 26 27 27 27 27 27 27 27 26 26 26 26 25 25 25 25 25 25 25 25 25 25 25 25 25 25 25 25 24 24 23 23 22 21 20 20 19
28 27 27 25 25 26 27 26 27 29 29 28 28 28 26 23 20 20 22 22 22 20 18 17 18 21 22 21 22 24 23 20 20 22 24 25 26 26 27 26 25 23 23 24 24 25 26 26 26 26 27 26 26 27 27 28 27 26 26 26 26 25 26 26 26 25 25 24 25 25 25 25 25 25 25 25 25 25 24 24 23 23 22 21 21 20
28 28 29 29 29 28 27 25 26 29 31 30 29 28 27 25 23 22 21 20 21 23 21 19 19 21 21 20 20 22 22 20 20 22 23 25 27 27 27 28 27 25 24 25 24 25 26 26 26 26 26 26 26 27 27 28 27 27 27 26 26 26 26 26 26 25 25 24 25 25 25 25 25 26 26 26 26 26 25 25 24 23 23 22 21 20
28 28 30 30 29 29 29 27 26 27 30 31 31 30 28 28 27 24 23 21 20 22 21 20 21 22 21 21 21 21 20 19 20 20 21 23 25 26 27 28 28 27 26 25 25 25 25 26 26 26 26 26 26 26 27 28 27 27 27 27 27 27 27 26 25 25 25 24 24 25 25 25 25 26 26 26 26 26 26 25 25 24 23 23 22 21
31 31 29 28 27 28 30 30 28 28 30 31 31 31 31 30 28 26 24 22 22 23 21 20 21 21 20 19 22 23 22 21 19 18 19 21 23 25 26 28 29 28 27 26 26 26 25 24 25 26 26 26 26 26 27 28 28 28 27 28 28 28 27 26 26 25 25 25 24 24 25 25 25 26 26 26 26 27 27 26 25 24 24 23 22 22
33 34 32 30 29 29 30 30 29 29 29 30 30 32 33 32 30 28 25 24 25 24 22 21 20 20 20 19 20 24 26 25 22 19 19 21 22 25 27 28 28 29 28 27 27 26 25 25 26 27 27 27 26 26 27 28 28 28 29 29 28 28 28 28 27 26 26 25 25 25 25 25 25 26 26 27 27 27 27 27 26 25 24 24 23 22
31 34 37 38 36 34 32 30 28 27 27 29 30 31 33 33 32 29 27 28 27 24 25 25 21 19 20 19 19 21 24 25 22 20 21 22 23 25 27 29 28 28 28 27 27 26 24 25 27 27 28 28 27 27 27 28 29 29 30 30 29 28 28 28 28 27 27 26 25 25 25 25 26 26 26 26 27 27 27 27 27 26 25 24 24 23
29 31 37 42 41 37 35 33 31 28 28 30 30 31 32 34 33 31 30 30 26 24 27 28 24 21 21 20 19 19 20 21 20 20 21 22 23 24 26 28 28 27 27 26 26 26 26 26 27 27 28 28 28 28 28 27 28 29 30 30 30 29 29 29 29 28 28 27 27 26 26 26 26 26 26 26 27 27 27 28 27 27 26 25 24 24
30 32 34 38 42 41 37 35 35 32 30 30 31 32 33 34 35 35 32 29 27 28 29 27 26 26 24 20 19 18 18 18 19 20 21 21 22 22 25 29 30 29 27 27 27 27 27 27 28 28 29 28 28 29 28 27 28 29 30 31 31 30 30 30 30 29 28 28 28 27 27 26 26 26 27 27 27 28 28 28 28 27 26 26 25 25
29 32 31 33 39 42 39 37 37 35 32 31 31 31 32 34 35 35 33 29 28 30 29 26 28 28 25 23 22 20 19 19 18 18 17 17 18 20 24 27 28 29 28 28 28 28 28 29 29 30 29 29 29 29 28 28 28 28 30 31 32 31 31 31 31 30 29 29 29 28 28 27 27 27 27 28 28 28 29 29 28 28 27 27 26 25
27 30 29 28 33 39 41 39 37 37 35 32 32 31 32 34 35 35 33 30 28 28 27 27 29 29 26 24 24 24 22 21 20 19 18 17 17 19 22 24 26 28 29 29 29 28 27 28 28 29 30 29 29 29 28 28 27 28 29 31 32 32 32 32 32 31 31 31 30 30 29 29 28 28 28 28 29 29 29 29 29 28 28 27 27 26
27 28 28 25 27 33 39 40 39 38 35 33 34 33 32 33 34 33 33 30 28 26 25 26 29 28 26 25 25 26 25 23 23 21 20 20 19 19 22 24 25 27 28 28 29 28 27 27 28 29 30 30 30 29 29 28 28 28 29 30 31 32 32 32 32 32 32 31 31 31 31 30 29 29 29 29 30 30 30 29 29 29 28 28 27 26
28 28 27 25 24 28 35 39 39 36 34 35 37 36 32 31 31 30 30 30 29 26 25 26 27 25 25 26 26 27 25 24 23 22 20 22 22 21 21 23 24 26 26 26 25 25 26 28 28 29 30 31 30 30 30 30 29 29 30 31 32 32 32 33 33 33 33 32 32 32 32 31 31 30 30 30 30 31 30 30 30 29 29 28 28 27
30 30 28 26 26 27 30 34 35 33 34 35 35 34 33 32 30 28 27 29 29 27 24 24 23 22 23 25 27 27 26 24 23 22 19 20 22 23 23 23 24 25 27 27 26 25 25 27 29 30 31 32 32 31 31 31 32 32 32 32 32 33 34 34 34 34 34 34 33 33 33 32 32 31 31 31 31 31 31 31 31 30 29 29 28 27
31 30 29 28 27 27 27 29 32 33 36 35 31 32 34 33 31 28 25 24 26 28 27 25 23 21 21 23 24 25 24 22 21 20 18 18 20 22 23 24 25 25 27 28 28 28 28 28 29 30 31 32 33 32 32 32 33 34 33 33 33 33 34 35 36 36 35 35 35 34 34 34 33 32 32 32 32 32 32 32 31 31 30 29 28 28
32 30 30 29 28 27 26 28 30 31 33 31 28 30 32 31 29 27 23 22 24 26 26 26 25 23 22 22 22 22 22 20 18 19 19 19 19 20 22 23 25 25 26 27 28 29 30 30 31 32 32 33 33 32 32 33 34 34 34 34 35 35 35 36 37 37 37 36 36 36 35 35 34 33 32 32 33 33 33 32 32 31 30 29 29 28
33 31 30 30 29 27 27 28 28 27 29 28 26 27 30 31 31 29 25 24 25 24 24 25 25 24 24 22 22 23 21 18 17 19 20 20 20 20 20 21 22 23 24 25 26 28 30 31 33 33 34 34 34 34 33 33 34 34 34 35 35 36 37 37 38 38 38 37 37 37 36 36 35 34 33 33 34 34 33 33 32 32 31 30 29 28
31 31 30 30 29 28 27 27 27 27 29 29 26 25 26 27 28 29 26 24 24 23 23 23 22 23 23 21 21 22 21 18 19 21 21 20 20 20 19 19 20 21 22 24 25 26 27 30 32 34 35 35 36 36 35 35 36 36 35 35 36 36 37 38 38 38 38 38 38 38 37 36 36 35 34 34 34 34 34 33 32 32 31 30 29 28
28 29 30 29 28 28 28 29 28 28 30 31 28 24 24 25 25 25 24 24 24 24 23 22 21 21 22 21 20 20 19 19 21 23 21 19 19 20 20 20 19 20 20 22 23 24 26 28 30 31 33 35 36 37 37 36 36 36 36 36 36 36 37 38 39 38 38 39 38 38 37 37 36 36 35 35 34 34 34 33 33 32 31 31 30 29
26 27 28 27 26 25 28 30 29 27 28 29 27 23 24 25 24 23 24 26 27 26 24 23 22 21 21 20 19 19 19 20 22 22 20 19 19 19 20 20 20 21 21 21 22 24 25 28 29 31 32 34 36 37 38 37 36 36 37 37 38 38 38 39 39 39 39 39 38 38 38 37 37 37 36 36 35 34 34 33 33 32 31 31 30 29
26 26 26 25 22 21 24 28 28 26 26 26 25 24 24 24 24 25 27 27 27 27 24 22 21 21 21 20 20 20 21 21 21 20 19 19 19 19 20 21 22 22 22 23 23 24 25 28 30 31 33 34 35 36 37 38 38 39 39 39 39 40 40 40 40 39 39 39 38 38 38 39 39 38 38 37 36 36 35 34 33 32 32 31 30 29
25 25 25 24 22 21 22 25 26 26 25 23 25 26 26 26 27 28 27 26 26 25 24 22 21 21 20 19 20 21 21 21 20 20 19 18 19 20 20 22 22 23 24 24 25 25 26 28 29 30 32 34 34 34 35 36 39 40 41 41 42 43 43 42 41 40 40 40 39 39 39 39 40 40 39 38 38 37 36 35 33 33 32 31 30 29
26 24 24 24 22 20 20 22 23 25 24 23 24 26 26 26 28 28 26 25 24 23 22 22 21 21 20 20 20 21 21 21 21 21 21 20 21 21 21 22 23 24 25 25 25 26 27 28 29 30 30 31 33 34 35 37 38 39 41 42 44 46 46 45 44 43 43 42 42 40 39 40 40 41 40 39 39 38 36 35 34 33 32 31 30 29
28 26 25 25 23 18 17 20 22 23 23 23 25 27 26 26 26 25 25 25 24 23 23 22 21 21 21 20 20 21 21 22 22 22 22 22 22 23 23 24 24 25 26 26 26 26 27 27 28 29 30 30 31 33 35 37 38 40 41 43 44 45 46 47 47 46 45 45 44 42 41 40 40 40 40 40 39 38 36 35 33 32 31 31 30 29
31 28 26 26 24 19 16 19 22 22 21 22 24 25 24 24 25 24 23 24 24 24 24 23 22 22 21 20 20 20 21 22 22 23 23 23 23 24 24 25 25 25 26 27 27 27 27 27 28 28 28 29 31 33 34 36 37 40 42 45 46 45 45 47 48 48 47 46 45 44 42 40 40 39 40 40 40 38 37 35 33 32 31 30 30 29
31 30 27 26 25 21 18 19 20 20 20 20 21 21 21 22 24 24 23 23 23 24 23 22 22 22 22 21 20 19 21 22 22 22 23 23 23 24 25 26 26 27 27 28 28 29 28 28 28 28 28 29 30 32 34 36 37 39 41 43 45 46 46 47 48 49 48 47 47 46 44 42 41 40 39 40 41 40 37 36 34 32 31 30 29 29
29 30 28 26 25 21 19 18 19 19 19 19 18 18 19 21 22 22 22 22 22 22 21 21 21 21 21 21 20 20 21 22 22 22 22 23 23 23 24 25 26 27 28 28 29 29 29 29 30 30 30 30 31 31 33 35 36 37 38 39 41 43 45 46 47 49 50 49 49 48 47 44 42 41 40 40 41 40 38 36 34 32 31 30 30 29
29 28 28 27 25 22 20 19 19 19 19 18 18 18 19 20 21 21 21 21 21 20 20 19 19 20 19 19 19 20 20 20 21 21 22 22 22 23 23 24 25 26 27 28 28 29 29 30 30 30 31 31 32 32 33 35 36 37 38 38 38 40 41 43 45 48 50 52 51 49 48 46 44 43 41 41 41 40 38 36 35 33 32 31 31 30
29 29 28 27 25 23 21 19 19 19 18 17 17 17 17 18 19 20 20 20 19 19 18 18 18 18 18 18 18 18 18 19 20 20 20 21 22 22 23 23 23 24 25 26 27 27 28 29 30 31 31 32 32 32 33 35 37 39 40 39 39 38 38 40 42 43 44 47 50 49 48 47 46 44 43 42 41 41 38 35 34 32 31 31 30 30
28 28 29 28 26 24 22 19 18 19 19 18 18 17 17 18 18 19 20 20 19 19 19 18 18 17 17 17 18 18 17 18 19 19 19 20 20 21 22 22 23 23 24 24 25 26 27 28 28 30 30 31 31 32 33 35 37 38 39 40 39 38 37 38 40 39 38 39 42 45 45 45 45 44 43 42 41 40 36 33 31 30 30 30 29 28
27 26 27 29 28 26 23 21 20 20 20 19 18 18 18 18 19 20 20 19 19 19 19 18 17 17 16 16 17 17 16 17 18 18 18 18 19 20 20 20 20 21 22 23 24 25 26 26 27 28 29 29 30 31 32 34 35 36 38 39 39 40 39 38 39 40 39 38 38 39 40 41 42 41 40 39 39 37 34 31 29 28 28 28 27 26
Wind_Direction
218 223 225 223 222 221 224 223 222 223 223 225 225 226 230 230 230 225 223 228 215 209 208 209 214 210 206 209 208 206 207 210 208 206 207 204 201 200 198 197 196 198 198 196 195 194 194 195 194 193 193 193 194 195 196 196 197 197 196 196 198 199 199 199 199 200 202 202 202 203 205 206 208 209 211 212 211 212 214 213 215 219 223 227 233 239
221 226 227 223 221 220 223 224 223 224 225 227 228 229 232 232 231 227 226 234 223 218 220 215 213 213 212 214 213 209 211 215 211 209 207 203 202 202 200 200 199 199 198 196 197 197 196 197 197 196 196 196 196 197 198 198 198 199 199 200 201 202 202 203 203 204 206 206 205 205 206 207 209 211 213 214 214 216 215 215 218 222 226 230 236 242
227 231 227 221 221 221 223 224 224 225 225 227 227 230 235 230 227 230 231 237 233 226 225 217 215 221 220 219 217 214 216 217 211 209 209 205 206 207 204 202 201 200 199 198 199 199 199 199 198 198 199 199 200 200 201 201 201 201 203 203 204 205 206 207 207 207 209 210 210 210 209 209 211 213 216 217 218 218 218 218 219 222 226 232 238 243
230 232 225 220 220 221 224 224 224 226 226 226 226 227 231 226 225 231 228 231 237 233 225 218 221 228 224 221 220 218 217 216 212 211 211 209 209 209 207 205 203 202 201 201 201 200 200 200 199 200 201 201 202 203 203 204 204 205 206 207 207 208 210 211 211 210 211 213 213 214 214 213 214 216 217 219 221 220 220 221 221 223 227 232 239 242
232 232 223 220 221 221 224 224 223 225 226 227 226 225 227 226 226 229 228 234 246 240 223 214 221 230 223 218 220 221 219 217 215 214 213 213 212 210 210 208 206 204 203 203 202 202 201 201 201 201 202 203 203 204 205 206 207 208 210 210 209 210 211 213 213 213 213 214 215 216 216 217 218 220 220 221 222 221 221 223 225 225 227 232 239 241
234 230 223 223 224 222 224 225 223 223 226 229 227 224 225 227 229 231 233 240 245 240 223 212 220 233 226 219 219 219 220 220 219 217 215 216 215 213 212 211 209 207 206 205 203 203 203 203 204 203 203 204 205 207 208 208 209 210 211 211 211 211 211 213 214 214 214 215 216 217 217 218 220 222 223 223 222 222 223 224 226 227 229 233 238 240
235 229 224 223 224 223 224 225 224 222 226 230 226 223 225 227 231 235 235 236 235 237 230 219 224 235 228 222 220 218 219 220 220 220 219 218 218 216 213 212 211 209 208 208 206 205 205 204 204 206 206 206 208 210 210 211 211 210 211 211 211 212 213 213 214 215 216 217 217 218 220 220 221 223 224 224 224 223 224 225 226 228 232 234 236 237
230 225 225 224 224 226 225 225 223 221 227 231 223 220 225 227 231 234 234 235 235 241 243 229 225 230 226 224 223 218 217 220 220 221 222 222 219 217 215 213 211 210 209 209 207 207 206 205 205 207 208 209 209 210 211 212 212 212 212 212 212 213 214 214 214 215 217 219 219 220 221 222 222 224 225 224 224 224 224 226 227 229 234 234 233 234
226 224 225 224 226 229 227 225 222 219 226 230 221 221 226 227 230 232 233 236 236 238 244 235 226 231 233 227 223 219 216 217 220 222 224 223 220 217 215 214 212 211 211 209 209 209 208 207 207 207 208 210 210 211 211 212 213 214 214 214 214 214 215 215 215 215 217 220 220 220 221 222 223 224 225 224 224 224 224 225 227 229 233 233 232 234
232 228 225 225 228 230 228 227 223 221 226 227 222 224 227 227 229 231 233 237 237 235 236 233 226 232 241 230 219 218 218 219 224 228 228 225 221 218 216 215 213 212 213 212 211 211 210 209 209 209 209 210 211 212 213 213 214 215 215 215 215 215 217 217 218 218 218 219 221 221 221 221 222 223 224 224 223 224 224 224 226 228 230 231 232 233
238 235 230 228 230 228 226 227 225 223 226 225 221 224 228 229 229 232 234 234 237 237 235 232 226 228 239 232 219 219 221 223 228 232 232 230 224 220 219 219 216 214 214 214 214 213 213 212 211 211 212 212 213 214 214 215 215 216 216 217 217 217 218 219 220 220 220 220 221 221 221 221 221 221 222 222 222 223 223 223 224 227 229 229 230 232
238 237 235 232 230 226 225 228 227 224 224 224 222 221 225 228 229 233 235 231 233 237 236 234 229 226 233 234 226 227 230 228 228 229 230 230 227 224 222 221 219 217 215 215 215 216 215 215 214 214 215 215 214 214 215 215 215 216 217 217 218 219 219 219 220 221 221 221 222 222 222 222 222 221 221 221 222 222 222 222 224 226 227 227 228 228
236 236 235 233 230 225 224 228 229 225 223 222 221 218 220 223 226 230 232 229 232 238 237 233 230 231 234 235 231 231 233 231 230 229 228 228 229 227 224 222 220 218 216 216 217 217 216 216 216 216 216 216 215 215 215 215 215 216 217 217 217 218 219 219 220 221 222 222 223 223 223 223 223 222 222 223 223 223 222 222 223 224 224 224 224 224
237 239 235 233 232 226 223 225 226 225 222 221 219 217 218 220 224 229 231 233 236 240 239 232 231 236 238 238 234 231 232 232 230 229 228 229 230 228 226 224 222 220 217 217 218 218 217 217 217 218 217 216 216 216 215 215 216 216 217 217 218 219 219 220 220 221 222 223 224 225 225 224 223 223 223 224 224 224 223 222 222 223 223 222 222 222
235 240 233 230 231 225 223 223 223 222 221 222 220 218 221 222 223 228 229 231 235 240 240 232 232 235 235 238 235 231 232 230 228 229 230 232 229 227 227 225 223 222 219 219 220 219 219 218 218 219 218 217 217 217 216 216 216 216 217 218 219 220 220 220 221 222 223 224 224 225 226 225 224 224 224 225 226 225 223 222 222 223 223 223 223 224
234 240 235 232 232 226 225 224 220 221 224 224 221 221 225 224 224 231 232 229 232 238 238 232 234 237 239 244 240 233 231 229 229 232 232 233 230 228 228 225 225 225 221 220 221 220 220 220 220 220 219 218 217 217 217 217 216 216 217 218 219 220 221 221 222 222 223 224 225 226 226 226 225 225 225 225 226 225 224 222 222 222 223 224 225 225
233 240 237 233 234 230 227 225 219 220 224 225 221 222 227 224 223 232 238 236 234 238 239 235 238 244 245 247 244 236 233 233 235 236 232 230 229 226 226 225 226 226 223 221 220 220 221 220 221 220 219 218 217 217 217 216 215 215 216 217 219 220 221 221 222 223 224 224 225 226 227 227 226 225 226 225 225 225 224 223 223 223 223 224 225 225
234 242 239 232 234 233 227 227 226 222 220 223 223 222 224 225 225 228 235 237 235 238 243 238 238 242 240 242 243 236 234 237 239 235 230 228 227 226 226 226 226 226 224 221 220 220 220 220 221 221 219 218 217 216 216 216 216 216 216 217 217 218 219 220 222 223 224 225 225 226 227 227 227 226 226 226 225 225 224 223 223 224 223 223 224 224
235 243 243 232 233 232 226 226 228 226 222 223 225 223 221 222 224 225 229 233 234 238 245 244 241 240 237 239 240 235 234 236 236 232 228 228 228 227 226 225 226 226 224 221 220 220 220 221 221 220 219 218 217 217 217 216 216 216 218 218 218 219 220 221 222 223 225 226 226 227 228 228 227 227 226 226 226 225 224 223 223 223 223 224 224 225
234 240 243 235 231 229 226 224 224 225 224 224 226 226 225 225 226 225 228 231 233 238 243 244 243 242 239 237 235 235 234 232 233 232 230 231 229 226 224 223 224 225 224 221 220 220 220 221 221 219 218 217 217 218 217 216 217 217 219 219 220 220 220 221 221 222 224 225 226 227 227 227 227 226 226 226 225 225 224 224 223 223 224 224 224 225
233 236 239 237 232 228 226 225 223 222 223 222 224 225 225 227 228 228 231 232 231 236 240 240 244 245 242 237 233 234 236 233 233 233 232 232 229 226 224 223 222 223 223 220 220 221 220 219 219 219 218 217 218 218 218 217 217 218 219 220 220 220 219 220 221 222 223 223 225 226 226 226 226 226 225 225 225 225 224 223 223 224 224 224 225 226
231 234 237 235 232 230 230 229 225 223 223 223 224 225 224 224 224 226 234 236 231 234 236 237 245 248 243 236 232 233 236 236 235 235 235 233 228 227 227 225 222 222 221 219 218 220 220 219 219 219 219 218 218 218 217 216 217 218 219 220 220 220 219 220 221 222 222 222 223 225 225 225 225 225 225 224 224 224 224 223 223 223 224 224 225 227
231 233 234 234 233 232 231 230 228 225 224 224 226 226 224 224 224 224 232 236 234 237 239 239 247 251 244 236 231 231 232 234 236 236 236 232 228 228 228 226 224 222 221 220 220 222 221 221 221 221 219 218 218 217 216 215 216 218 219 220 220 219 219 219 221 222 222 222 223 224 225 226 225 225 224 224 224 224 223 223 223 223 223 224 226 228
229 230 231 232 234 234 233 233 233 229 224 224 225 224 223 225 226 227 231 233 236 239 238 239 248 252 248 240 234 232 228 229 235 238 236 233 231 231 228 224 223 222 221 221 222 223 223 222 222 221 220 220 219 218 218 217 217 218 219 219 219 220 220 219 220 221 222 222 223 224 225 225 225 225 224 224 224 223 222 222 222 222 223 224 226 229
227 227 226 228 230 231 231 231 231 229 224 224 225 223 223 224 225 229 232 232 237 238 233 236 246 250 250 245 238 236 233 231 235 238 236 233 233 233 228 224 223 222 222 222 223 225 224 223 222 221 221 221 220 220 220 219 218 218 219 219 219 220 221 220 221 221 221 222 223 224 225 225 225 225 224 224 223 223 222 221 222 223 223 225 227 229
228 226 223 223 225 225 226 226 226 225 225 227 226 223 222 221 222 227 229 229 234 236 231 235 245 250 253 248 240 239 237 235 236 236 235 234 235 235 230 225 224 223 222 224 225 225 225 224 223 223 222 222 222 221 221 221 220 219 219 219 220 220 220 221 222 222 222 222 223 225 225 225 225 225 224 224 224 223 222 222 223 223 224 226 227 228
229 228 226 224 226 226 226 227 226 223 224 227 226 223 222 221 221 225 228 230 232 233 234 237 241 248 252 247 241 240 237 235 237 238 239 240 240 239 233 227 224 223 223 225 226 226 226 225 224 223 224 224 223 222 223 224 222 220 220 220 220 220 220 222 223 224 224 223 223 225 225 225 225 225 225 225 224 223 223 223 224 225 225 226 227 228
231 234 232 227 227 228 227 226 226 224 224 226 225 224 222 221 220 223 228 231 230 231 237 238 236 242 248 245 244 244 237 233 237 241 240 239 237 235 230 226 225 226 226 227 227 226 226 226 225 223 224 224 223 223 224 224 222 221 220 220 219 220 221 222 224 225 225 225 224 225 225 225 225 225 225 225 225 224 224 224 225 225 226 227 228 229
231 235 236 232 230 228 227 225 225 225 226 226 225 224 222 221 220 222 228 230 228 231 237 236 233 238 243 243 243 242 232 227 234 240 239 239 237 228 221 220 222 225 226 226 227 226 226 227 226 224 223 223 222 222 222 222 222 221 221 220 220 221 222 224 224 225 226 227 227 226 226 226 226 226 226 225 225 225 225 225 226 226 227 228 228 230
232 233 236 238 233 228 226 225 224 225 226 226 226 225 223 222 222 223 227 228 229 233 236 234 235 238 239 239 241 239 230 226 232 237 235 237 239 230 223 221 222 223 224 225 227 228 228 229 228 224 222 221 221 221 221 221 222 221 221 221 222 223 224 225 225 226 227 228 229 228 226 226 226 226 226 226 225 225 225 226 226 227 227 228 229 231
234 233 236 241 236 227 225 224 224 224 224 224 226 227 225 224 223 224 226 226 229 234 236 235 237 240 241 239 240 241 237 233 233 233 232 232 232 228 226 226 225 224 224 225 227 229 230 230 227 223 220 220 221 221 221 222 222 222 222 222 223 224 225 225 226 227 228 230 231 229 228 227 227 226 226 226 226 226 226 226 226 227 228 228 229 231
233 234 236 240 238 231 225 222 223 224 223 224 226 225 224 224 223 225 225 224 226 231 235 236 239 241 241 238 239 240 239 237 236 233 231 231 228 225 224 223 222 223 224 226 230 232 231 229 226 222 221 221 221 221 222 223 224 224 224 224 225 225 225 225 226 228 229 230 231 230 229 229 228 227 227 226 226 226 226 226 226 227 227 228 230 232
231 234 235 236 239 236 227 221 222 223 224 227 227 223 221 223 224 226 227 226 225 228 232 236 238 240 237 234 235 237 235 234 236 232 229 230 229 226 224 223 224 226 226 227 231 233 231 229 226 224 222 222 222 223 225 227 227 228 228 228 227 226 225 226 227 229 230 230 230 231 231 230 229 228 227 227 226 226 226 226 226 226 227 229 230 233
229 232 234 232 233 236 230 219 217 221 223 227 227 221 219 222 223 224 228 228 228 230 233 236 239 239 238 234 232 233 232 231 234 235 232 232 231 229 227 227 228 230 231 231 230 230 230 228 226 224 224 224 225 227 230 232 232 233 232 231 229 228 227 227 228 229 230 230 230 231 231 230 229 229 228 227 227 226 226 226 226 226 228 229 231 233
229 230 231 228 226 232 230 214 212 221 224 226 229 224 220 221 220 222 228 230 230 231 231 233 237 237 238 236 231 228 227 226 231 238 238 236 235 235 235 233 231 231 233 233 232 231 230 228 225 226 227 227 228 232 236 237 236 235 235 233 231 230 230 230 229 230 230 230 230 231 231 231 230 229 228 227 227 226 226 226 226 227 228 230 231 234
228 228 228 226 224 228 227 217 216 223 224 226 232 228 221 219 217 218 225 230 231 231 228 227 230 231 233 237 234 226 219 217 226 240 244 242 241 240 239 238 235 233 234 235 235 234 232 231 229 229 231 231 233 236 238 238 237 236 236 235 234 233 232 231 231 230 230 230 230 230 231 231 230 230 229 227 226 226 226 226 227 228 229 230 233 235
225 224 224 224 222 223 225 222 219 221 220 221 228 226 219 218 217 215 220 228 233 233 228 225 227 229 230 233 234 229 222 219 227 239 244 244 243 241 241 242 240 238 238 238 238 236 235 234 234 234 234 235 236 237 238 238 237 237 237 237 236 235 233 232 231 230 230 229 229 230 230 231 231 230 229 227 226 226 226 227 228 229 229 231 233 236
221 218 217 220 221 221 223 220 217 217 216 217 223 226 219 213 213 213 217 225 230 232 230 227 227 230 230 230 231 229 227 227 232 237 240 242 242 242 243 245 244 242 243 243 242 239 237 236 236 237 238 238 238 239 239 239 239 239 239 239 238 236 234 232 231 231 230 230 230 230 230 230 230 230 229 227 227 226 226 227 228 230 230 232 234 237
219 214 212 216 221 223 222 219 217 218 218 217 220 223 216 208 208 211 215 221 226 230 229 226 225 227 228 228 228 227 227 230 234 238 239 239 240 240 241 244 246 245 245 246 245 243 241 239 239 239 240 240 240 240 240 240 240 240 240 239 237 236 234 233 232 232 232 232 232 231 231 230 229 229 228 228 227 226 226 227 229 230 231 233 235 238
215 212 209 211 217 221 219 217 216 217 217 217 218 220 216 210 208 210 215 219 224 227 226 223 223 226 226 227 228 228 231 232 234 238 239 237 238 239 239 241 245 246 248 249 248 248 246 244 243 243 242 242 242 241 240 240 240 241 241 239 236 235 235 234 234 234 234 234 233 232 230 229 229 228 228 228 228 226 226 227 229 230 232 233 236 238
209 208 206 207 213 219 217 214 213 213 213 216 221 225 223 216 212 214 218 220 221 224 224 223 224 227 228 228 229 231 234 235 236 239 241 240 240 242 241 241 242 244 246 248 251 252 251 249 248 247 246 246 245 243 241 240 240 242 242 240 236 235 236 237 236 236 235 235 234 232 231 230 229 228 228 228 227 227 226 227 229 230 231 233 235 237
205 205 204 205 210 215 215 212 210 209 211 219 227 227 222 217 217 219 219 218 218 221 223 224 225 228 228 228 229 230 233 236 239 241 244 245 245 247 249 248 247 247 247 248 251 253 253 253 253 253 252 251 248 246 244 242 242 242 242 241 238 237 238 239 238 237 237 235 234 234 232 230 229 228 227 226 226 226 226 227 228 230 231 233 235 236
205 203 202 202 205 210 214 210 205 208 217 225 227 222 218 218 219 218 217 218 218 219 222 225 229 230 229 230 232 235 236 240 243 245 247 248 250 251 253 253 253 252 251 251 252 253 253 253 255 256 256 254 250 246 244 244 244 244 243 243 242 240 240 240 239 239 238 236 235 235 233 231 229 227 227 225 224 224 225 226 227 228 230 232 233 235
205 203 201 200 201 204 209 207 205 211 222 226 221 217 219 220 217 214 216 220 221 220 221 224 229 232 231 232 235 238 241 244 248 251 252 252 254 255 255 255 255 256 255 255 255 255 254 254 255 257 256 254 252 248 245 244 245 246 245 245 244 244 242 240 239 238 238 237 236 235 234 232 229 227 226 224 222 222 223 225 226 227 229 231 232 235
206 205 202 201 202 203 207 208 209 214 221 222 219 218 220 220 216 214 216 221 223 223 222 223 227 231 232 232 233 237 242 246 249 253 255 256 257 258 257 257 258 258 257 257 257 258 258 256 257 257 256 255 253 251 249 247 247 247 247 246 245 245 244 242 239 238 237 236 235 235 234 232 229 227 226 224 222 221 222 223 224 226 227 229 232 234
205 205 203 203 205 207 208 207 209 213 217 219 220 218 218 219 219 216 216 219 221 221 222 222 225 228 231 232 234 238 243 247 250 253 255 257 259 260 260 259 259 259 258 258 259 260 259 258 258 257 257 258 257 255 253 252 251 251 252 250 247 245 245 244 241 238 236 236 234 233 232 231 230 227 225 223 221 220 221 222 222 224 225 227 231 233
205 204 203 203 204 207 208 208 211 212 212 214 218 218 218 221 221 216 215 218 220 219 220 222 224 226 231 234 236 239 244 247 250 252 255 256 259 261 261 260 260 260 260 261 261 260 259 258 258 258 258 259 259 258 257 256 255 255 255 254 252 248 246 246 245 241 236 235 233 231 229 229 228 226 223 222 220 219 220 220 221 222 223 225 229 231
206 205 205 203 203 205 208 211 214 212 209 213 219 219 219 222 223 219 214 214 216 217 219 224 226 228 232 235 237 239 243 247 249 251 253 256 258 260 261 261 261 262 262 263 263 262 260 259 258 258 259 260 260 260 259 259 259 258 256 255 254 252 249 248 249 246 240 234 232 229 227 226 225 223 222 220 218 217 217 218 219 220 222 225 227 230
208 207 207 204 203 206 208 211 213 210 209 216 223 223 221 222 224 221 214 210 212 216 219 224 228 230 231 235 238 240 243 248 251 251 253 257 260 262 263 263 263 263 264 265 265 264 262 260 260 260 261 261 262 262 262 262 261 260 258 256 254 253 251 250 251 252 247 238 232 228 225 223 221 220 220 217 215 214 215 216 217 219 221 225 228 231
207 208 208 205 204 207 210 211 209 206 209 217 222 224 224 224 226 227 222 217 217 219 220 222 226 230 233 237 240 241 244 249 252 253 255 258 261 263 264 264 264 264 265 266 267 266 264 262 261 261 262 264 265 265 264 264 263 262 260 258 255 253 251 249 249 250 249 244 236 229 224 221 219 218 217 213 210 208 209 211 215 217 220 224 229 233
206 208 208 207 207 210 212 211 208 207 211 217 219 221 224 228 232 236 232 225 222 222 222 221 224 229 233 238 242 244 245 249 252 254 256 259 262 264 265 266 266 266 266 267 267 267 266 265 264 264 265 266 268 269 269 269 267 264 261 258 255 251 249 247 247 247 247 246 241 231 224 221 218 216 214 210 204 202 203 207 212 217 221 225 229 232